Regional Weather Roundup
Issued by NWS Green Bay, WI

Home | Current Version | Previous Version | Graphics & Text | Print | Product List | Glossary Off
Versions: 1 2 3 4 5 6 7 8 9 10 11 12 13 14 15 16 17 18 19 20 21 22 23 24 25 26 27 28 29 30 31 32 33 34 35 36 37 38 39 40 41 42 43 44 45 46 47 48 49 50

000
ASUS43 KGRB 311711
RWRGRB

NORTH-CENTRAL AND NORTHEAST WISCONSIN REGIONAL WEATHER ROUNDUP
NATIONAL WEATHER SERVICE GREEN BAY WI
1200 PM CDT MON AUG 31 2015

WIZ005-009-010>012-018-019-311800-
NORTH CENTRAL WISCONSIN

CITY           SKY/WX    TMP DP  RH WIND       PRES   REMARKS
IRONWOOD       SUNNY     77  64  65 S9G17     29.91S
MANITOWISH WTR SUNNY     74  65  75 S12       29.99F
ARBOR VITAE    SUNNY     77  68  72 S10       30.01S
EAGLE RIVER    SUNNY     75  62  64 SW9       30.01S
LAND O LAKES   SUNNY     77  62  58 S7        30.00F
RHINELANDER    PTSUNNY   72  64  76 SW10      30.04S
PHILLIPS       CLOUDY    68  65  88 SW10      30.01S
ANTIGO         CLOUDY    71  65  80 W7        30.05S
TOMAHAWK       PTSUNNY   72  64  76 CALM      30.04S
MERRILL        CLOUDY    69  66  91 SW7       30.05S
$$

WIZ013-073-311800-
NORTHEAST WISCONSIN

CITY           SKY/WX    TMP DP  RH WIND       PRES   REMARKS
IRON MOUNTAIN  SUNNY     79  63  57 S7        29.98F
MARINETTE      PTSUNNY   70  63  78 W7        30.01S
OCONTO         CLOUDY    69  69 100 SW6       30.03S
$$

WIZ017-030-035>037-045-311800-
CENTRAL WISCONSIN

CITY           SKY/WX    TMP DP  RH WIND       PRES   REMARKS
MEDFORD        CLOUDY    68  66  93 SW6       30.04S
WAUSAU         CLOUDY    68  65  90 SW7       30.03F
MOSINEE        CLOUDY    64  64 100 SW6       30.06S FOG
MARSHFIELD     CLOUDY    71  65  81 SW9       30.05S
WISC RAPIDS    CLOUDY    72  66  81 S6        30.06S
STEVENS POINT  CLOUDY    68  65  91 SW7       30.05S FOG
WAUPACA        CLOUDY    74  69  83 SW5       30.05F
SHAWANO        CLOUDY    73  66  79 SW6       30.04S
CLINTONVILLE   CLOUDY    70  64  83 SW7       30.05S
WAUTOMA        CLOUDY    75  70  83 VRB6      30.05F
$$

WIZ038-039-048-051-311800-
FOX VALLEY

CITY           SKY/WX    TMP DP  RH WIND       PRES   REMARKS
NWS GREEN BAY  CLOUDY    74  66  76 W9        30.04F
APPLETON       PTSUNNY   72  68  88 SW7       30.05S
OSHKOSH        CLOUDY    72  64  76 SW7       30.06S
FOND DU LAC    CLOUDY    73  65  75 W5        30.07S
$$

WIZ022-050-052-311800-
EAST CENTRAL WISCONSIN

CITY           SKY/WX    TMP DP  RH WIND       PRES   REMARKS
EPHRAIM        CLOUDY    65  63  93 SW6       30.02S
STURGEON BAY   CLOUDY    68  63  83 SW9       30.06S
MANITOWOC      MOSUNNY   76  66  71 MISG      30.05F
SHEBOYGAN      PTSUNNY   75  66  73 W8        30.06S
$$

LMZ563-521-522-541>543-311800-
LAKESHORE

STATION/POSITION TIME  TEMP    WIND        PRES    VSBY  WAVE
                       AIR SEA DIR/SP/G                  HT/PER
                 (UTC) (F)     (DEG/KT/KT) (MB)    (MI)  (FT/S)
SHEBOYGAN LKSHOR 1700   67     170/ 18/ 19 1017.8F
KEWAUNEE LKSHORE 1600   53     160/  4/  6 1016.3R
NORTHPORT PIER   1600   66     220/  5/  9 1016.6R
N MID LAKE BUOY  1650   63 65  210/ 14/ 16 1016.3R         2/ 4
S GREEN BAY BUOY 1600   64 63  240/  6/  8 1018.6R
CHAMBERS ISLAND  1640   66     170/  5/  9 1016.6S
MENOMINEE LKSHOR 1600   67     230/ 10/ 13 1015.6R
$$


USA.gov is the U.S. government's official web portal to all federal, state and local government web resources and services.